Location: Ammerl�gen
(47.2167°N, 9.6000°E)
Time: 11:06:09
(UTC+00:00)

NOAA 19 - Visible Passes

Search period start: 01 December 2021 00:00
Search period end: 11 December 2021 00:00
Orbit: 840 x 861 km, 99.2° (Epoch: 01 December)

Date Brightness Start Highest point End Pass type
(mag) Time Alt. Az. Time Alt. Az. Time Alt. Az.
01 Dec 7.8 06:01:20 10° NE 06:05:43 24° E 06:10:04 10° SE visible
01 Dec 5.2 17:30:22 10° SSE 17:35:42 58° ENE 17:41:04 10° N visible
01 Dec 7.3 19:12:31 10° SW 19:16:44 22° W 19:20:58 10° NW visible
02 Dec 8.0 05:49:55 10° NE 05:53:45 19° E 05:57:35 10° SE visible
02 Dec 5.4 17:18:45 10° SE 17:23:56 47° ENE 17:29:10 10° N visible
02 Dec 7.0 19:00:11 10° SSW 19:04:48 28° W 19:09:28 10° NW visible
03 Dec 8.1 05:38:42 10° NE 05:41:47 15° E 05:44:52 10° ESE visible
03 Dec 5.6 17:07:12 10° SE 17:12:12 38° ENE 17:17:14 10° N visible
03 Dec 6.6 18:47:57 10° SSW 18:52:53 35° W 18:57:52 10° NNW visible
04 Dec 8.4 05:27:55 10° ENE 05:29:47 12° E 05:31:39 10° ESE visible
04 Dec 5.8 16:55:45 10° ESE 17:00:29 32° ENE 17:05:16 10° N visible
04 Dec 6.2 18:35:49 10° S 18:40:59 43° W 18:46:13 10° NNW visible
05 Dec 6.1 16:44:22 10° ESE 16:48:48 26° ENE 16:53:15 10° N visible
05 Dec 5.8 18:23:48 10° S 18:29:07 54° W 18:34:31 10° NNW visible
06 Dec 6.3 16:33:05 10° ESE 16:37:08 22° ENE 16:41:11 10° N visible
06 Dec 5.4 18:11:51 10° S 18:17:16 68° WSW 18:22:45 10° NNW visible
07 Dec 6.5 16:21:56 10° E 16:25:28 18° NE 16:29:02 10° NNE visible
07 Dec 5.1 17:59:58 10° SSE 18:05:26 84° WSW 18:10:58 10° NNW visible
07 Dec 8.0 19:44:33 10° WSW 19:46:56 13° W 19:49:18 10° WNW visible
08 Dec 7.3 06:18:57 10° NNE 06:23:52 32° E 06:28:47 10° SSE visible
08 Dec 6.7 16:10:54 10° E 16:13:50 15° NE 16:16:47 10° NNE visible
08 Dec 5.0 17:48:11 10° SSE 17:53:38 79° ENE 17:59:08 10° NNW visible
08 Dec 7.8 19:31:35 10° SW 19:34:56 16° W 19:38:18 10° NW visible
09 Dec 7.7 06:07:23 10° NE 06:11:57 26° E 06:16:31 10° SSE visible
09 Dec 5.1 17:36:28 10° SSE 17:41:50 64° ENE 17:47:17 10° N visible
09 Dec 7.5 19:18:58 10° SW 19:22:58 21° W 19:27:00 10° NW visible
10 Dec 7.9 05:55:54 10° NE 06:00:01 21° E 06:04:06 10° SE visible
10 Dec 5.3 17:24:49 10° SE 17:30:05 52° ENE 17:35:24 10° N visible
10 Dec 7.1 19:06:33 10° SSW 19:11:00 26° W 19:15:32 10° NW visible
